Home > Weather > Utrecht > Past weeks

Flag for Netherlands Weather for the Past 2 Weeks in Utrecht, Netherlands

Now
70 °F

Passing clouds.


Feels Like: 70 °F
Forecast: 54 / 76 °F
Wind: 13 mph from Southeast

Location: Amsterdam Schiphol Airport

Current Time: May 6, 2016 at 1:55:58 PM

Latest Report: May 6, 2016 at 1:25 PM


Visibility: N/A

Pressure: 29.89 "Hg

Humidity: 50%

Dew Point: 50 °F

Location of UtrechtLocation

Historic Weather in Utrecht — Graph

°F

Utrecht Temperature Yesterday

Maximum temperature yesterday: 66 °F (at 5:25 PM)
Minimum temperature yesterday: 43 °F (at 3:25 AM)
Average temperature yesterday: 55 °F

High & Low Weather Summary for the Past Weeks

 TemperatureHumidityPressure
High68 °F (May 6, 11:55 AM)100% (Apr 28, 5:25 AM)30.39 "Hg (Apr 28, 5:25 AM)
Low34 °F (Apr 25, 3:25 AM)32% (May 5, 3:55 PM)29.42 "Hg (Apr 26, 5:55 AM)
Average47 °F71%30.03 "Hg
* Reported Apr 21 12:25 PM — May 6 12:25 PM, Utrecht, Weather by CustomWeather, © 2016

Note: Actual official high and low records may vary slightly from our data, if they occured in-between our weather recording intervals... More about our weather records

Advertising

Utrecht Weather History for the Previous 24 Hours

Scroll right to see more
 ConditionsComfort  
Time TempWeatherWind HumidityBarometerVisibility
12:25 PM
Fri, May 6
68 °FPassing clouds.15 mph49%29.92 "HgN/A
11:55 AM68 °FPassing clouds.16 mph49%29.92 "HgN/A
11:25 AM66 °FPassing clouds.10 mph56%29.92 "HgN/A
10:55 AM66 °FPassing clouds.12 mph56%29.95 "HgN/A
10:25 AM64 °FSunny.14 mph60%29.95 "Hg10 mi
9:55 AM63 °FPassing clouds.13 mph59%29.98 "HgN/A
9:25 AM61 °FSunny.12 mph63%29.98 "Hg10 mi
8:55 AM59 °FPassing clouds.12 mph63%29.98 "HgN/A
8:25 AM57 °FSunny.12 mph67%29.98 "Hg10 mi
7:55 AM55 °FPassing clouds.12 mph67%29.98 "HgN/A
7:25 AM54 °FSunny.12 mph72%29.98 "Hg10 mi
6:55 AM52 °FPassing clouds.9 mph77%30.01 "HgN/A
6:25 AM50 °FClear.8 mph76%30.01 "Hg10 mi
5:55 AM50 °FClear.8 mph76%30.01 "Hg10 mi
5:25 AM52 °FPassing clouds.8 mph72%30.01 "HgN/A
4:55 AM52 °FClear.8 mph72%30.01 "Hg10 mi
4:25 AM52 °FPassing clouds.8 mph72%30.04 "HgN/A
3:55 AM52 °FPassing clouds.9 mph72%30.04 "HgN/A
3:25 AM52 °FClear.8 mph72%30.04 "Hg10 mi
2:55 AM54 °FClear.9 mph67%30.04 "Hg10 mi
2:25 AM54 °FClear.9 mph67%30.04 "Hg10 mi
1:55 AM55 °FClear.9 mph63%30.07 "Hg10 mi
1:25 AM54 °FClear.8 mph67%30.07 "Hg10 mi
12:55 AM55 °FClear.9 mph63%30.07 "Hg10 mi
12:25 AM54 °FClear.8 mph67%30.07 "Hg10 mi
11:55 PM
Thu, May 5
57 °FClear.9 mph59%30.07 "Hg10 mi
11:25 PM54 °FClear.9 mph67%30.09 "Hg10 mi
10:55 PM54 °FClear.7 mph67%30.09 "Hg10 mi
10:25 PM54 °FClear.7 mph67%30.09 "Hg10 mi
9:55 PM57 °FSunny.8 mph55%30.09 "Hg10 mi
9:25 PM55 °FSunny.8 mph59%30.09 "Hg10 mi
8:55 PM59 °FSunny.7 mph48%30.09 "Hg10 mi
8:25 PM61 °FPassing clouds.6 mph45%30.09 "HgN/A
7:55 PM63 °FPassing clouds.9 mph42%30.09 "HgN/A
7:25 PM64 °FPassing clouds.9 mph37%30.12 "HgN/A
6:55 PM64 °FPassing clouds.10 mph34%30.12 "HgN/A
6:25 PM66 °FPassing clouds.12 mph32%30.12 "HgN/A
5:55 PM64 °FPassing clouds.12 mph34%30.15 "HgN/A
5:25 PM66 °FPassing clouds.9 mph32%30.15 "HgN/A
4:55 PM64 °FPassing clouds.9 mph32%30.18 "HgN/A
4:25 PM64 °FSunny.8 mph34%30.18 "Hg10 mi
3:55 PM64 °FPassing clouds.9 mph32%30.18 "HgN/A
3:25 PM64 °FPassing clouds.9 mph34%30.18 "HgN/A
2:55 PM64 °FPassing clouds.10 mph34%30.21 "HgN/A
2:25 PM64 °FPassing clouds.9 mph34%30.21 "HgN/A
1:55 PM63 °FPassing clouds.13 mph37%30.24 "HgN/A
1:25 PM63 °FPassing clouds.10 mph37%30.24 "HgN/A
Weather by CustomWeather, © 2016

See weather overviewHow to use our weather pages